contact:dominique.lefevre@mio.osupytheas.fr, maurice.libes@osupytheas.fr, didier.mallarino@osupytheas.fr
Project:EMSO http://www.emso-fr.org/EMSO-France
Depth: 2436.0 m
Title:EMSO Ligure Ouest : Data MII capteur MICROCAT
DateTime_Computer,Latitude,Longitude,Temperature,Conductivity,Pressure,DateTime_Instrument
DateTime_Computer,Latitude,Longitude,degC,S m-1,dbar,DateTime_Instrument
2020-11-29T00:02:18Z,42.805,6.029,13.2982,4.59981,2470.156,2020-11-29T02:03:15Z
2020-11-29T00:05:21Z,42.805,6.029,13.2979,4.59981,2470.156,2020-11-29T02:06:18Z
2020-11-29T00:08:24Z,42.805,6.029,13.2982,4.59981,2470.171,2020-11-29T02:09:21Z
2020-11-29T00:11:27Z,42.805,6.029,13.2979,4.59981,2470.133,2020-11-29T02:12:25Z
2020-11-29T00:14:30Z,42.805,6.029,13.2978,4.59981,2470.133,2020-11-29T02:15:28Z
2020-11-29T00:17:33Z,42.805,6.029,13.2979,4.59981,2470.133,2020-11-29T02:18:31Z
2020-11-29T00:20:36Z,42.805,6.029,13.2976,4.59981,2470.156,2020-11-29T02:21:34Z
2020-11-29T00:23:40Z,42.805,6.029,13.2979,4.59981,2470.171,2020-11-29T02:24:37Z
2020-11-29T00:26:43Z,42.805,6.029,13.2982,4.59981,2470.133,2020-11-29T02:27:40Z
2020-11-29T00:29:46Z,42.805,6.029,13.2978,4.59981,2470.147,2020-11-29T02:30:43Z
2020-11-29T00:32:49Z,42.805,6.029,13.2976,4.59981,2470.133,2020-11-29T02:33:46Z
2020-11-29T00:35:52Z,42.805,6.029,13.2979,4.59981,2470.147,2020-11-29T02:36:50Z
2020-11-29T00:38:55Z,42.805,6.029,13.2981,4.59981,2470.18,2020-11-29T02:39:53Z
2020-11-29T00:41:58Z,42.805,6.029,13.2976,4.59981,2470.133,2020-11-29T02:42:56Z
2020-11-29T00:45:01Z,42.805,6.029,13.2979,4.59981,2470.133,2020-11-29T02:45:59Z
2020-11-29T00:48:05Z,42.805,6.029,13.2979,4.59982,2470.156,2020-11-29T02:49:02Z
2020-11-29T00:51:08Z,42.805,6.029,13.2976,4.59981,2470.171,2020-11-29T02:52:05Z
2020-11-29T00:54:11Z,42.805,6.029,13.2982,4.59981,2470.133,2020-11-29T02:55:08Z
2020-11-29T00:57:14Z,42.805,6.029,13.2980,4.59981,2470.11,2020-11-29T02:58:12Z
2020-11-29T01:00:17Z,42.805,6.029,13.2980,4.59981,2470.171,2020-11-29T03:01:15Z
2020-11-29T01:03:20Z,42.805,6.029,13.2982,4.59981,2470.156,2020-11-29T03:04:18Z
2020-11-29T01:06:23Z,42.805,6.029,13.2982,4.59981,2470.171,2020-11-29T03:07:21Z
2020-11-29T01:09:26Z,42.805,6.029,13.2976,4.59981,2470.171,2020-11-29T03:10:24Z
2020-11-29T01:12:29Z,42.805,6.029,13.2975,4.59981,2470.156,2020-11-29T03:13:27Z
2020-11-29T01:15:33Z,42.805,6.029,13.2978,4.59983,2470.156,2020-11-29T03:16:30Z
2020-11-29T01:18:36Z,42.805,6.029,13.2981,4.59981,2470.147,2020-11-29T03:19:33Z
2020-11-29T01:21:39Z,42.805,6.029,13.2979,4.59982,2470.194,2020-11-29T03:22:36Z
2020-11-29T01:24:42Z,42.805,6.029,13.2982,4.59981,2470.171,2020-11-29T03:25:40Z
2020-11-29T01:27:45Z,42.805,6.029,13.2978,4.59981,2470.133,2020-11-29T03:28:43Z
2020-11-29T01:30:48Z,42.805,6.029,13.2980,4.59981,2470.147,2020-11-29T03:31:46Z
2020-11-29T01:33:51Z,42.805,6.029,13.2980,4.59981,2470.156,2020-11-29T03:34:49Z
2020-11-29T01:36:54Z,42.805,6.029,13.2979,4.59983,2470.156,2020-11-29T03:37:52Z
2020-11-29T01:39:58Z,42.805,6.029,13.2982,4.59981,2470.156,2020-11-29T03:40:55Z
2020-11-29T01:43:01Z,42.805,6.029,13.2982,4.59981,2470.156,2020-11-29T03:43:58Z
2020-11-29T01:46:04Z,42.805,6.029,13.2981,4.59981,2470.171,2020-11-29T03:47:01Z
2020-11-29T01:49:07Z,42.805,6.029,13.2979,4.59981,2470.156,2020-11-29T03:50:05Z
2020-11-29T01:52:10Z,42.805,6.029,13.2977,4.59981,2470.18,2020-11-29T03:53:08Z
2020-11-29T01:55:13Z,42.805,6.029,13.2980,4.59981,2470.171,2020-11-29T03:56:11Z
2020-11-29T01:58:16Z,42.805,6.029,13.2981,4.59983,2470.133,2020-11-29T03:59:14Z
2020-11-29T02:01:19Z,42.805,6.029,13.2979,4.59982,2470.156,2020-11-29T04:02:17Z
2020-11-29T02:04:23Z,42.805,6.029,13.2980,4.59981,2470.156,2020-11-29T04:05:20Z
2020-11-29T02:07:26Z,42.805,6.029,13.2979,4.59982,2470.133,2020-11-29T04:08:23Z
2020-11-29T02:10:29Z,42.805,6.029,13.2982,4.59982,2470.156,2020-11-29T04:11:26Z
2020-11-29T02:13:32Z,42.805,6.029,13.2979,4.59983,2470.18,2020-11-29T04:14:30Z
2020-11-29T02:16:35Z,42.805,6.029,13.2983,4.59982,2470.18,2020-11-29T04:17:33Z
2020-11-29T02:19:38Z,42.805,6.029,13.2980,4.59982,2470.166,2020-11-29T04:20:36Z
2020-11-29T02:22:41Z,42.805,6.029,13.2977,4.59982,2470.171,2020-11-29T04:23:39Z
2020-11-29T02:25:44Z,42.805,6.029,13.2977,4.59982,2470.18,2020-11-29T04:26:42Z
2020-11-29T02:28:48Z,42.805,6.029,13.2979,4.59982,2470.156,2020-11-29T04:29:45Z
2020-11-29T02:31:51Z,42.805,6.029,13.2981,4.59982,2470.156,2020-11-29T04:32:48Z
2020-11-29T02:34:54Z,42.805,6.029,13.2979,4.59981,2470.194,2020-11-29T04:35:51Z
2020-11-29T02:37:57Z,42.805,6.029,13.2982,4.59982,2470.171,2020-11-29T04:38:55Z
2020-11-29T02:41:00Z,42.805,6.029,13.2982,4.59983,2470.156,2020-11-29T04:41:58Z
2020-11-29T02:44:03Z,42.805,6.029,13.2981,4.59981,2470.18,2020-11-29T04:45:01Z
2020-11-29T02:47:06Z,42.805,6.029,13.2980,4.59981,2470.171,2020-11-29T04:48:04Z
2020-11-29T02:50:09Z,42.805,6.029,13.2979,4.59983,2470.194,2020-11-29T04:51:07Z
2020-11-29T02:53:12Z,42.805,6.029,13.2980,4.59982,2470.194,2020-11-29T04:54:10Z
2020-11-29T02:56:16Z,42.805,6.029,13.2976,4.59982,2470.194,2020-11-29T04:57:13Z
2020-11-29T02:59:19Z,42.805,6.029,13.2979,4.59982,2470.203,2020-11-29T05:00:16Z
2020-11-29T03:02:22Z,42.805,6.029,13.2983,4.59982,2470.171,2020-11-29T05:03:19Z
2020-11-29T03:05:25Z,42.805,6.029,13.2979,4.59982,2470.194,2020-11-29T05:06:23Z
2020-11-29T03:08:28Z,42.805,6.029,13.2979,4.59982,2470.156,2020-11-29T05:09:26Z
2020-11-29T03:11:31Z,42.805,6.029,13.2980,4.59982,2470.217,2020-11-29T05:12:29Z
2020-11-29T03:14:34Z,42.805,6.029,13.2982,4.59983,2470.24,2020-11-29T05:15:32Z
2020-11-29T03:17:37Z,42.805,6.029,13.2979,4.59982,2470.227,2020-11-29T05:18:35Z
2020-11-29T03:20:41Z,42.805,6.029,13.2978,4.59982,2470.18,2020-11-29T05:21:38Z
2020-11-29T03:23:44Z,42.805,6.029,13.2979,4.59982,2470.203,2020-11-29T05:24:41Z
2020-11-29T03:26:47Z,42.805,6.029,13.2983,4.59983,2470.203,2020-11-29T05:27:44Z
2020-11-29T03:29:50Z,42.805,6.029,13.2982,4.59983,2470.217,2020-11-29T05:30:48Z
2020-11-29T03:32:53Z,42.805,6.029,13.2982,4.59983,2470.217,2020-11-29T05:33:51Z
2020-11-29T03:35:56Z,42.805,6.029,13.2979,4.59982,2470.189,2020-11-29T05:36:54Z
2020-11-29T03:38:59Z,42.805,6.029,13.2981,4.59982,2470.18,2020-11-29T05:39:57Z
2020-11-29T03:42:02Z,42.805,6.029,13.2978,4.59982,2470.264,2020-11-29T05:43:00Z
2020-11-29T03:45:06Z,42.805,6.029,13.2980,4.59982,2470.18,2020-11-29T05:46:03Z
2020-11-29T03:48:09Z,42.805,6.029,13.2980,4.59983,2470.217,2020-11-29T05:49:06Z
2020-11-29T03:51:12Z,42.805,6.029,13.2979,4.59982,2470.227,2020-11-29T05:52:09Z
2020-11-29T03:54:15Z,42.805,6.029,13.2979,4.59982,2470.203,2020-11-29T05:55:13Z
2020-11-29T03:57:18Z,42.805,6.029,13.2982,4.59983,2470.194,2020-11-29T05:58:16Z
2020-11-29T04:00:21Z,42.805,6.029,13.2978,4.59982,2470.227,2020-11-29T06:01:19Z
2020-11-29T04:03:24Z,42.805,6.029,13.2979,4.59982,2470.227,2020-11-29T06:04:22Z
2020-11-29T04:06:27Z,42.805,6.029,13.2976,4.59983,2470.227,2020-11-29T06:07:25Z
2020-11-29T04:09:31Z,42.805,6.029,13.2980,4.59982,2470.227,2020-11-29T06:10:28Z
2020-11-29T04:12:34Z,42.805,6.029,13.2983,4.59982,2470.264,2020-11-29T06:13:31Z
2020-11-29T04:15:37Z,42.805,6.029,13.2980,4.59982,2470.227,2020-11-29T06:16:34Z
2020-11-29T04:18:40Z,42.805,6.029,13.2979,4.59982,2470.25,2020-11-29T06:19:38Z
2020-11-29T04:21:43Z,42.805,6.029,13.2980,4.59983,2470.264,2020-11-29T06:22:41Z
2020-11-29T04:24:46Z,42.805,6.029,13.2982,4.59983,2470.227,2020-11-29T06:25:44Z
2020-11-29T04:27:49Z,42.805,6.029,13.2982,4.59983,2470.236,2020-11-29T06:28:47Z
2020-11-29T04:30:52Z,42.805,6.029,13.2982,4.59983,2470.25,2020-11-29T06:31:50Z
2020-11-29T04:33:56Z,42.805,6.029,13.2980,4.59984,2470.227,2020-11-29T06:34:53Z
2020-11-29T04:36:59Z,42.805,6.029,13.2984,4.59983,2470.227,2020-11-29T06:37:56Z
2020-11-29T04:40:02Z,42.805,6.029,13.2978,4.59983,2470.273,2020-11-29T06:40:59Z
2020-11-29T04:43:05Z,42.805,6.029,13.2982,4.59983,2470.273,2020-11-29T06:44:03Z
2020-11-29T04:46:08Z,42.805,6.029,13.2982,4.59983,2470.264,2020-11-29T06:47:06Z
2020-11-29T04:49:11Z,42.805,6.029,13.2980,4.59982,2470.264,2020-11-29T06:50:09Z
2020-11-29T04:52:14Z,42.805,6.029,13.2976,4.59983,2470.273,2020-11-29T06:53:12Z
2020-11-29T04:55:17Z,42.805,6.029,13.2982,4.59983,2470.264,2020-11-29T06:56:15Z
2020-11-29T04:58:21Z,42.805,6.029,13.2980,4.59982,2470.273,2020-11-29T06:59:18Z
2020-11-29T05:01:24Z,42.805,6.029,13.2979,4.59983,2470.264,2020-11-29T07:02:21Z
2020-11-29T05:04:27Z,42.805,6.029,13.2977,4.59983,2470.273,2020-11-29T07:05:24Z
2020-11-29T05:07:30Z,42.805,6.029,13.2980,4.59983,2470.297,2020-11-29T07:08:28Z
2020-11-29T05:10:33Z,42.805,6.029,13.2982,4.59984,2470.297,2020-11-29T07:11:31Z
2020-11-29T05:13:36Z,42.805,6.029,13.2983,4.59983,2470.25,2020-11-29T07:14:34Z
2020-11-29T05:16:39Z,42.805,6.029,13.2982,4.59982,2470.32,2020-11-29T07:17:37Z
2020-11-29T05:19:42Z,42.805,6.029,13.2979,4.59982,2470.287,2020-11-29T07:20:40Z
2020-11-29T05:22:46Z,42.805,6.029,13.2979,4.59983,2470.273,2020-11-29T07:23:43Z
2020-11-29T05:25:49Z,42.805,6.029,13.2977,4.59983,2470.287,2020-11-29T07:26:46Z
2020-11-29T05:28:52Z,42.805,6.029,13.2980,4.59982,2470.287,2020-11-29T07:29:49Z
2020-11-29T05:31:55Z,42.805,6.029,13.2976,4.59983,2470.273,2020-11-29T07:32:52Z
2020-11-29T05:34:58Z,42.805,6.029,13.2979,4.59982,2470.273,2020-11-29T07:35:56Z
2020-11-29T05:38:01Z,42.805,6.029,13.2978,4.59982,2470.297,2020-11-29T07:38:59Z
2020-11-29T05:41:04Z,42.805,6.029,13.2978,4.59982,2470.334,2020-11-29T07:42:02Z
2020-11-29T05:44:07Z,42.805,6.029,13.2977,4.59983,2470.297,2020-11-29T07:45:05Z
2020-11-29T05:47:10Z,42.805,6.029,13.2978,4.59983,2470.32,2020-11-29T07:48:08Z
2020-11-29T05:50:14Z,42.805,6.029,13.2977,4.59982,2470.297,2020-11-29T07:51:11Z
2020-11-29T05:53:17Z,42.805,6.029,13.2979,4.59983,2470.287,2020-11-29T07:54:14Z
2020-11-29T05:56:20Z,42.805,6.029,13.2981,4.59982,2470.31,2020-11-29T07:57:17Z
2020-11-29T05:59:23Z,42.805,6.029,13.2980,4.59982,2470.334,2020-11-29T08:00:21Z
2020-11-29T06:02:26Z,42.805,6.029,13.2979,4.59983,2470.32,2020-11-29T08:03:24Z
2020-11-29T06:05:29Z,42.805,6.029,13.2980,4.59982,2470.297,2020-11-29T08:06:27Z
2020-11-29T06:08:32Z,42.805,6.029,13.2978,4.59982,2470.334,2020-11-29T08:09:30Z
2020-11-29T06:11:35Z,42.805,6.029,13.2976,4.59982,2470.32,2020-11-29T08:12:33Z
2020-11-29T06:14:39Z,42.805,6.029,13.2979,4.59982,2470.343,2020-11-29T08:15:36Z
2020-11-29T06:17:42Z,42.805,6.029,13.2978,4.59983,2470.32,2020-11-29T08:18:39Z
2020-11-29T06:20:45Z,42.805,6.029,13.2978,4.59982,2470.32,2020-11-29T08:21:42Z
2020-11-29T06:23:48Z,42.805,6.029,13.2977,4.59982,2470.343,2020-11-29T08:24:46Z
2020-11-29T06:26:51Z,42.805,6.029,13.2979,4.59983,2470.32,2020-11-29T08:27:49Z
2020-11-29T06:29:54Z,42.805,6.029,13.2981,4.59982,2470.366,2020-11-29T08:30:52Z
2020-11-29T06:32:57Z,42.805,6.029,13.2982,4.59982,2470.297,2020-11-29T08:33:55Z
2020-11-29T06:36:00Z,42.805,6.029,13.2980,4.59983,2470.32,2020-11-29T08:36:58Z
2020-11-29T06:39:04Z,42.805,6.029,13.2978,4.59984,2470.297,2020-11-29T08:40:01Z
2020-11-29T06:42:07Z,42.805,6.029,13.2979,4.59983,2470.283,2020-11-29T08:43:04Z
2020-11-29T06:45:10Z,42.805,6.029,13.2976,4.59983,2470.32,2020-11-29T08:46:07Z
2020-11-29T06:48:13Z,42.805,6.029,13.2976,4.59982,2470.343,2020-11-29T08:49:11Z
2020-11-29T06:51:16Z,42.805,6.029,13.2982,4.59982,2470.32,2020-11-29T08:52:14Z
2020-11-29T06:54:19Z,42.805,6.029,13.2980,4.59981,2470.283,2020-11-29T08:55:17Z
2020-11-29T06:57:22Z,42.805,6.029,13.2979,4.59982,2470.31,2020-11-29T08:58:20Z
2020-11-29T07:00:25Z,42.805,6.029,13.2977,4.59982,2470.343,2020-11-29T09:01:23Z
2020-11-29T07:03:29Z,42.805,6.029,13.2976,4.59982,2470.343,2020-11-29T09:04:26Z
2020-11-29T07:06:32Z,42.805,6.029,13.2979,4.59982,2470.343,2020-11-29T09:07:29Z
2020-11-29T07:09:35Z,42.805,6.029,13.2977,4.59983,2470.334,2020-11-29T09:10:32Z
2020-11-29T07:12:38Z,42.805,6.029,13.2981,4.59983,2470.26,2020-11-29T09:13:36Z
2020-11-29T07:15:41Z,42.805,6.029,13.2980,4.59983,2470.32,2020-11-29T09:16:39Z
2020-11-29T07:18:44Z,42.805,6.029,13.2979,4.59983,2470.32,2020-11-29T09:19:42Z
2020-11-29T07:21:47Z,42.805,6.029,13.2979,4.59983,2470.32,2020-11-29T09:22:45Z
2020-11-29T07:24:50Z,42.805,6.029,13.2979,4.59983,2470.297,2020-11-29T09:25:48Z
2020-11-29T07:27:54Z,42.805,6.029,13.2981,4.59983,2470.31,2020-11-29T09:28:51Z
2020-11-29T07:30:57Z,42.805,6.029,13.2982,4.59983,2470.31,2020-11-29T09:31:54Z
2020-11-29T07:34:00Z,42.805,6.029,13.2980,4.59982,2470.297,2020-11-29T09:34:57Z
2020-11-29T07:37:03Z,42.805,6.029,13.2981,4.59982,2470.32,2020-11-29T09:38:01Z
2020-11-29T07:40:06Z,42.805,6.029,13.2979,4.59983,2470.32,2020-11-29T09:41:04Z
2020-11-29T07:43:09Z,42.805,6.029,13.2982,4.59983,2470.343,2020-11-29T09:44:07Z
2020-11-29T07:46:12Z,42.805,6.029,13.2976,4.59982,2470.32,2020-11-29T09:47:10Z
2020-11-29T07:49:15Z,42.805,6.029,13.2982,4.59982,2470.273,2020-11-29T09:50:13Z
2020-11-29T07:52:19Z,42.805,6.029,13.2979,4.59982,2470.297,2020-11-29T09:53:16Z
2020-11-29T07:55:22Z,42.805,6.029,13.2978,4.59983,2470.343,2020-11-29T09:56:19Z
2020-11-29T07:58:25Z,42.805,6.029,13.2981,4.59983,2470.297,2020-11-29T09:59:22Z
2020-11-29T08:01:28Z,42.805,6.029,13.2982,4.59981,2470.264,2020-11-29T10:02:26Z
2020-11-29T08:04:31Z,42.805,6.029,13.2976,4.59982,2470.31,2020-11-29T10:05:29Z
2020-11-29T08:07:34Z,42.805,6.029,13.2982,4.59983,2470.32,2020-11-29T10:08:32Z
2020-11-29T08:10:37Z,42.805,6.029,13.2982,4.59983,2470.32,2020-11-29T10:11:35Z
2020-11-29T08:13:40Z,42.805,6.029,13.2979,4.59984,2470.334,2020-11-29T10:14:38Z
2020-11-29T08:16:43Z,42.805,6.029,13.2979,4.59982,2470.297,2020-11-29T10:17:41Z
2020-11-29T08:19:47Z,42.805,6.029,13.2981,4.59983,2470.357,2020-11-29T10:20:44Z
2020-11-29T08:22:50Z,42.805,6.029,13.2977,4.59981,2470.334,2020-11-29T10:23:47Z
2020-11-29T08:25:53Z,42.805,6.029,13.2982,4.59982,2470.31,2020-11-29T10:26:51Z
2020-11-29T08:28:56Z,42.805,6.029,13.2983,4.59982,2470.297,2020-11-29T10:29:54Z
2020-11-29T08:31:59Z,42.805,6.029,13.2978,4.59983,2470.334,2020-11-29T10:32:57Z
2020-11-29T08:35:02Z,42.805,6.029,13.2979,4.59983,2470.343,2020-11-29T10:36:00Z
2020-11-29T08:38:05Z,42.805,6.029,13.2979,4.59982,2470.31,2020-11-29T10:39:03Z
2020-11-29T08:41:09Z,42.805,6.029,13.2981,4.59982,2470.297,2020-11-29T10:42:06Z
2020-11-29T08:44:12Z,42.805,6.029,13.2980,4.59982,2470.297,2020-11-29T10:45:09Z
2020-11-29T08:47:15Z,42.805,6.029,13.2977,4.59983,2470.287,2020-11-29T10:48:12Z
2020-11-29T08:50:18Z,42.805,6.029,13.2976,4.59984,2470.273,2020-11-29T10:51:16Z
2020-11-29T08:53:21Z,42.805,6.029,13.2979,4.59983,2470.273,2020-11-29T10:54:19Z
2020-11-29T08:56:24Z,42.805,6.029,13.2979,4.59983,2470.32,2020-11-29T10:57:22Z
2020-11-29T08:59:27Z,42.805,6.029,13.2979,4.59983,2470.32,2020-11-29T11:00:25Z
2020-11-29T09:02:30Z,42.805,6.029,13.2979,4.59983,2470.297,2020-11-29T11:03:28Z
2020-11-29T09:05:33Z,42.805,6.029,13.2979,4.59982,2470.287,2020-11-29T11:06:31Z
2020-11-29T09:08:37Z,42.805,6.029,13.2979,4.59982,2470.273,2020-11-29T11:09:34Z
2020-11-29T09:11:40Z,42.805,6.029,13.2978,4.59982,2470.297,2020-11-29T11:12:37Z
2020-11-29T09:14:43Z,42.805,6.029,13.2983,4.59982,2470.297,2020-11-29T11:15:41Z
2020-11-29T09:17:46Z,42.805,6.029,13.2979,4.59982,2470.31,2020-11-29T11:18:44Z
2020-11-29T09:20:49Z,42.805,6.029,13.2981,4.59983,2470.297,2020-11-29T11:21:47Z
2020-11-29T09:23:52Z,42.805,6.029,13.2982,4.59983,2470.297,2020-11-29T11:24:50Z
2020-11-29T09:26:55Z,42.805,6.029,13.2980,4.59982,2470.32,2020-11-29T11:27:53Z
2020-11-29T09:29:59Z,42.805,6.029,13.2978,4.59983,2470.273,2020-11-29T11:30:56Z
2020-11-29T09:33:02Z,42.805,6.029,13.2981,4.59982,2470.273,2020-11-29T11:33:59Z
2020-11-29T09:36:05Z,42.805,6.029,13.2980,4.59983,2470.25,2020-11-29T11:37:02Z
2020-11-29T09:39:08Z,42.805,6.029,13.2979,4.59983,2470.264,2020-11-29T11:40:06Z
2020-11-29T09:42:11Z,42.805,6.029,13.2976,4.59982,2470.297,2020-11-29T11:43:09Z
2020-11-29T09:45:14Z,42.805,6.029,13.2982,4.59982,2470.287,2020-11-29T11:46:12Z
2020-11-29T09:48:17Z,42.805,6.029,13.2978,4.59982,2470.273,2020-11-29T11:49:15Z
2020-11-29T09:51:20Z,42.805,6.029,13.2983,4.59983,2470.25,2020-11-29T11:52:18Z
2020-11-29T09:54:24Z,42.805,6.029,13.2979,4.59982,2470.273,2020-11-29T11:55:21Z
2020-11-29T09:57:27Z,42.805,6.029,13.2982,4.59982,2470.227,2020-11-29T11:58:24Z
2020-11-29T10:00:30Z,42.805,6.029,13.2979,4.59983,2470.287,2020-11-29T12:01:27Z
2020-11-29T10:03:33Z,42.805,6.029,13.2982,4.59981,2470.25,2020-11-29T12:04:31Z
2020-11-29T10:06:36Z,42.805,6.029,13.2978,4.59981,2470.287,2020-11-29T12:07:34Z
2020-11-29T10:09:39Z,42.805,6.029,13.2974,4.59982,2470.273,2020-11-29T12:10:37Z
2020-11-29T10:12:42Z,42.805,6.029,13.2979,4.59982,2470.273,2020-11-29T12:13:40Z
2020-11-29T10:15:45Z,42.805,6.029,13.2979,4.59982,2470.264,2020-11-29T12:16:43Z
2020-11-29T10:18:49Z,42.805,6.029,13.2980,4.59983,2470.25,2020-11-29T12:19:46Z
2020-11-29T10:21:52Z,42.805,6.029,13.2979,4.59982,2470.287,2020-11-29T12:22:49Z
2020-11-29T10:24:55Z,42.805,6.029,13.2979,4.59983,2470.264,2020-11-29T12:25:52Z
2020-11-29T10:27:58Z,42.805,6.029,13.2978,4.59982,2470.273,2020-11-29T12:28:56Z
2020-11-29T10:31:01Z,42.805,6.029,13.2979,4.59981,2470.25,2020-11-29T12:31:59Z
2020-11-29T10:34:04Z,42.805,6.029,13.2978,4.59982,2470.203,2020-11-29T12:35:02Z
2020-11-29T10:37:07Z,42.805,6.029,13.2980,4.59982,2470.25,2020-11-29T12:38:05Z
2020-11-29T10:40:10Z,42.805,6.029,13.2977,4.59983,2470.227,2020-11-29T12:41:08Z
2020-11-29T10:43:14Z,42.805,6.029,13.2976,4.59983,2470.203,2020-11-29T12:44:11Z
2020-11-29T10:46:17Z,42.805,6.029,13.2982,4.59982,2470.227,2020-11-29T12:47:14Z
2020-11-29T10:49:20Z,42.805,6.029,13.2980,4.59982,2470.25,2020-11-29T12:50:17Z
2020-11-29T10:52:23Z,42.805,6.029,13.2982,4.59982,2470.264,2020-11-29T12:53:21Z
2020-11-29T10:55:26Z,42.805,6.029,13.2979,4.59983,2470.203,2020-11-29T12:56:24Z
2020-11-29T10:58:29Z,42.805,6.029,13.2981,4.59983,2470.18,2020-11-29T12:59:27Z
2020-11-29T11:01:32Z,42.805,6.029,13.2981,4.59982,2470.213,2020-11-29T13:02:30Z
2020-11-29T11:04:35Z,42.805,6.029,13.2976,4.59981,2470.227,2020-11-29T13:05:33Z
2020-11-29T11:07:39Z,42.805,6.029,13.2984,4.59982,2470.25,2020-11-29T13:08:36Z
2020-11-29T11:10:42Z,42.805,6.029,13.2978,4.59982,2470.227,2020-11-29T13:11:39Z
2020-11-29T11:13:45Z,42.805,6.029,13.2977,4.59982,2470.24,2020-11-29T13:14:42Z
2020-11-29T11:16:48Z,42.805,6.029,13.2978,4.59983,2470.203,2020-11-29T13:17:46Z
2020-11-29T11:19:51Z,42.805,6.029,13.2979,4.59982,2470.203,2020-11-29T13:20:49Z
2020-11-29T11:22:54Z,42.805,6.029,13.2982,4.59983,2470.25,2020-11-29T13:23:52Z
2020-11-29T11:25:57Z,42.805,6.029,13.2979,4.59982,2470.227,2020-11-29T13:26:55Z
2020-11-29T11:29:01Z,42.805,6.029,13.2978,4.59982,2470.227,2020-11-29T13:29:58Z
2020-11-29T11:32:04Z,42.805,6.029,13.2982,4.59981,2470.25,2020-11-29T13:33:01Z
2020-11-29T11:35:07Z,42.805,6.029,13.2983,4.59982,2470.24,2020-11-29T13:36:04Z
2020-11-29T11:38:10Z,42.805,6.029,13.2977,4.59982,2470.203,2020-11-29T13:39:08Z
2020-11-29T11:41:13Z,42.805,6.029,13.2982,4.59982,2470.203,2020-11-29T13:42:11Z
2020-11-29T11:44:16Z,42.805,6.029,13.2979,4.59983,2470.203,2020-11-29T13:45:14Z
2020-11-29T11:47:19Z,42.805,6.029,13.2979,4.59982,2470.217,2020-11-29T13:48:17Z
2020-11-29T11:50:22Z,42.805,6.029,13.2976,4.59981,2470.203,2020-11-29T13:51:20Z
2020-11-29T11:53:26Z,42.805,6.029,13.2981,4.59982,2470.217,2020-11-29T13:54:23Z
2020-11-29T11:56:29Z,42.805,6.029,13.2982,4.59981,2470.18,2020-11-29T13:57:26Z
2020-11-29T11:59:32Z,42.805,6.029,13.2980,4.59981,2470.203,2020-11-29T14:00:29Z
2020-11-29T12:02:35Z,42.805,6.029,13.2980,4.59982,2470.18,2020-11-29T14:03:33Z
2020-11-29T12:05:38Z,42.805,6.029,13.2980,4.59981,2470.217,2020-11-29T14:06:36Z
2020-11-29T12:08:41Z,42.805,6.029,13.2980,4.59982,2470.18,2020-11-29T14:09:39Z
2020-11-29T12:11:44Z,42.805,6.029,13.2979,4.59981,2470.217,2020-11-29T14:12:42Z
2020-11-29T12:14:47Z,42.805,6.029,13.2978,4.59981,2470.156,2020-11-29T14:15:45Z
2020-11-29T12:17:51Z,42.805,6.029,13.2981,4.59982,2470.18,2020-11-29T14:18:48Z
2020-11-29T12:20:54Z,42.805,6.029,13.2979,4.59981,2470.194,2020-11-29T14:21:51Z
2020-11-29T12:23:57Z,42.805,6.029,13.2981,4.59983,2470.203,2020-11-29T14:24:54Z
2020-11-29T12:27:00Z,42.805,6.029,13.2977,4.59982,2470.18,2020-11-29T14:27:58Z
2020-11-29T12:30:03Z,42.805,6.029,13.2976,4.59981,2470.18,2020-11-29T14:31:01Z
2020-11-29T12:33:06Z,42.805,6.029,13.2976,4.59982,2470.203,2020-11-29T14:34:04Z
2020-11-29T12:36:09Z,42.805,6.029,13.2981,4.59982,2470.194,2020-11-29T14:37:07Z
2020-11-29T12:39:12Z,42.805,6.029,13.2980,4.59982,2470.194,2020-11-29T14:40:10Z
2020-11-29T12:42:16Z,42.805,6.029,13.2979,4.59982,2470.189,2020-11-29T14:43:13Z
2020-11-29T12:45:19Z,42.805,6.029,13.2980,4.59982,2470.18,2020-11-29T14:46:16Z
2020-11-29T12:48:22Z,42.805,6.029,13.2979,4.59982,2470.194,2020-11-29T14:49:19Z
2020-11-29T12:51:25Z,42.805,6.029,13.2981,4.59982,2470.18,2020-11-29T14:52:23Z
2020-11-29T12:54:28Z,42.805,6.029,13.2979,4.59983,2470.217,2020-11-29T14:55:26Z
2020-11-29T12:57:31Z,42.805,6.029,13.2978,4.59982,2470.18,2020-11-29T14:58:29Z
2020-11-29T13:00:34Z,42.805,6.029,13.2978,4.59982,2470.194,2020-11-29T15:01:32Z
2020-11-29T13:03:37Z,42.805,6.029,13.2976,4.59982,2470.203,2020-11-29T15:04:35Z
2020-11-29T13:06:41Z,42.805,6.029,13.2982,4.59983,2470.171,2020-11-29T15:07:38Z
2020-11-29T13:09:44Z,42.805,6.029,13.2979,4.59983,2470.18,2020-11-29T15:10:41Z
2020-11-29T13:12:47Z,42.805,6.029,13.2976,4.59981,2470.194,2020-11-29T15:13:44Z
2020-11-29T13:15:50Z,42.805,6.029,13.2983,4.59981,2470.156,2020-11-29T15:16:48Z
2020-11-29T13:18:53Z,42.805,6.029,13.2982,4.59985,2470.147,2020-11-29T15:19:51Z
2020-11-29T13:21:56Z,42.805,6.029,13.2983,4.59982,2470.194,2020-11-29T15:22:54Z
2020-11-29T13:24:59Z,42.805,6.029,13.2979,4.59982,2470.194,2020-11-29T15:25:57Z
2020-11-29T13:28:02Z,42.805,6.029,13.2979,4.59981,2470.194,2020-11-29T15:29:00Z
2020-11-29T13:31:06Z,42.805,6.029,13.2982,4.59982,2470.194,2020-11-29T15:32:03Z
2020-11-29T13:34:09Z,42.805,6.029,13.2979,4.59982,2470.203,2020-11-29T15:35:06Z
2020-11-29T13:37:12Z,42.805,6.029,13.2981,4.59981,2470.18,2020-11-29T15:38:09Z
2020-11-29T13:40:15Z,42.805,6.029,13.2981,4.59982,2470.203,2020-11-29T15:41:13Z
2020-11-29T13:43:18Z,42.805,6.029,13.2980,4.59983,2470.227,2020-11-29T15:44:16Z
2020-11-29T13:46:21Z,42.805,6.029,13.2983,4.59983,2470.18,2020-11-29T15:47:19Z
2020-11-29T13:49:24Z,42.805,6.029,13.2982,4.59983,2470.217,2020-11-29T15:50:22Z
2020-11-29T13:52:27Z,42.805,6.029,13.2983,4.59983,2470.24,2020-11-29T15:53:25Z
2020-11-29T13:55:31Z,42.805,6.029,13.2981,4.59983,2470.217,2020-11-29T15:56:28Z
2020-11-29T13:58:34Z,42.805,6.029,13.2980,4.59983,2470.18,2020-11-29T15:59:31Z
2020-11-29T14:01:37Z,42.805,6.029,13.2976,4.59983,2470.203,2020-11-29T16:02:34Z
2020-11-29T14:04:40Z,42.805,6.029,13.2982,4.59983,2470.203,2020-11-29T16:05:38Z
2020-11-29T14:07:43Z,42.805,6.029,13.2980,4.59982,2470.203,2020-11-29T16:08:41Z
2020-11-29T14:10:46Z,42.805,6.029,13.2982,4.59982,2470.227,2020-11-29T16:11:44Z
2020-11-29T14:13:49Z,42.805,6.029,13.2981,4.59983,2470.217,2020-11-29T16:14:47Z
2020-11-29T14:16:52Z,42.805,6.029,13.2983,4.59983,2470.194,2020-11-29T16:17:50Z
2020-11-29T14:19:56Z,42.805,6.029,13.2979,4.59983,2470.227,2020-11-29T16:20:53Z
2020-11-29T14:22:59Z,42.805,6.029,13.2980,4.59982,2470.25,2020-11-29T16:23:56Z
2020-11-29T14:26:02Z,42.805,6.029,13.2981,4.59983,2470.227,2020-11-29T16:26:59Z
2020-11-29T14:29:05Z,42.805,6.029,13.2983,4.59983,2470.18,2020-11-29T16:30:03Z
2020-11-29T14:32:08Z,42.805,6.029,13.2982,4.59982,2470.24,2020-11-29T16:33:06Z
2020-11-29T14:35:11Z,42.805,6.029,13.2981,4.59983,2470.203,2020-11-29T16:36:09Z
2020-11-29T14:38:14Z,42.805,6.029,13.2982,4.59983,2470.18,2020-11-29T16:39:12Z
2020-11-29T14:41:18Z,42.805,6.029,13.2981,4.59982,2470.203,2020-11-29T16:42:15Z
2020-11-29T14:44:21Z,42.805,6.029,13.2982,4.59982,2470.227,2020-11-29T16:45:18Z
2020-11-29T14:47:24Z,42.805,6.029,13.2979,4.59983,2470.18,2020-11-29T16:48:21Z
2020-11-29T14:50:27Z,42.805,6.029,13.2983,4.59982,2470.24,2020-11-29T16:51:25Z
2020-11-29T14:53:30Z,42.805,6.029,13.2983,4.59982,2470.18,2020-11-29T16:54:28Z
2020-11-29T14:56:33Z,42.805,6.029,13.2981,4.59982,2470.203,2020-11-29T16:57:31Z
2020-11-29T14:59:36Z,42.805,6.029,13.2979,4.59982,2470.227,2020-11-29T17:00:34Z
2020-11-29T15:02:39Z,42.805,6.029,13.2978,4.59982,2470.25,2020-11-29T17:03:37Z